SP9KB-13 Weather Reports


time (UTC)temp
F
wind
direction
speed
knots
gust
knots
rain 1hr
in
rain 24hr
in
rain mn
in
humidity
%
barometer
mb
20260505004006 42 232 0.0 0.0 0.00 0.00 0.00 84 996.2
20260505003505 42 232 0.9 0.9 0.00 0.00 0.00 83 996.3
20260505003004 42 232 0.9 1.7 0.00 0.00 0.00 83 996.4
20260505002504 42 232 1.7 1.7 0.00 0.00 0.00 84 996.1
20260505002003 43 231 0.0 0.9 0.00 0.00 0.00 83 996.3
20260505001503 42 230 1.7 1.7 0.00 0.00 0.00 84 996.2
20260505001002 41 229 0.0 0.0 0.00 0.00 0.00 87 996.6
20260505000502 41 228 0.0 0.0 0.00 0.00 0.00 86 996.3
20260505000001 42 228 0.0 0.0 0.00 0.00 0.00 84 996.4
20260504235500 42 228 0.0 0.0 0.00 0.00 0.00 82 996.3
20260504235000 44 228 0.0 0.9 0.00 0.00 0.00 81 996.4
20260504234459 44 225 0.9 1.7 0.00 0.00 0.00 81 996.5
20260504233959 44 229 0.9 1.7 0.00 0.00 0.00 80 996.4
20260504233458 44 225 0.9 0.9 0.00 0.00 0.00 79 996.4
20260504232958 44 224 0.9 1.7 0.00 0.00 0.00 80 996.6
20260504232457 44 225 0.9 0.9 0.00 0.00 0.00 80 996.4
20260504231956 44 231 1.7 1.7 0.00 0.00 0.00 81 996.4
20260504231456 44 230 0.9 1.7 0.00 0.00 0.00 81 996.7
20260504230955 44 230 0.0 0.0 0.00 0.00 0.00 80 996.5
20260504230455 45 230 0.0 0.0 0.00 0.00 0.00 78 996.6
20260504225954 45 229 0.0 0.9 0.00 0.00 0.00 76 996.5
20260504225454 45 230 0.9 1.7 0.00 0.00 0.00 76 996.6
20260504224953 46 227 0.9 1.7 0.00 0.00 0.00 76 996.6
20260504224452 46 211 0.0 0.0 0.00 0.00 0.00 76 996.6
20260504223952 46 210 0.0 0.0 0.00 0.00 0.00 76 996.6
20260504223451 46 211 0.0 0.0 0.00 0.00 0.00 76 996.7
20260504222951 46 210 0.0 0.0 0.00 0.00 0.00 75 996.6
20260504222450 47 210 0.0 0.0 0.00 0.00 0.00 74 996.7
20260504221949 48 210 0.0 0.0 0.00 0.00 0.00 71 996.7
20260504221449 48 210 0.0 0.0 0.00 0.00 0.00 70 996.5
20260504220948 49 210 0.0 0.0 0.00 0.00 0.00 70 996.6
20260504220448 49 211 0.0 0.0 0.00 0.00 0.00 68 996.6
20260504215947 49 211 0.0 0.9 0.00 0.00 0.00 67 996.6
20260504215447 49 180 0.0 0.0 0.00 0.00 0.00 66 996.7
20260504214946 50 180 0.0 0.0 0.00 0.00 0.00 65 996.7
20260504214445 51 180 0.0 0.0 0.00 0.00 0.00 64 996.6
20260504213944 50 183 0.0 0.9 0.00 0.00 0.00 64 996.5
20260504213444 51 127 0.0 0.0 0.00 0.00 0.00 63 996.6
20260504212943 51 190 0.0 0.0 0.00 0.00 0.00 63 996.7
20260504212443 52 132 0.0 0.9 0.00 0.00 0.00 62 996.6
20260504211942 52 227 0.0 0.0 0.00 0.00 0.00 61 996.5
20260504211442 53 227 0.0 0.0 0.00 0.00 0.00 59 996.5
20260504210941 54 227 0.0 0.0 0.00 0.00 0.00 56 996.3
20260504210441 55 226 0.0 0.9 0.00 0.00 0.00 55 996.4
20260504205940 56 227 0.0 0.0 0.00 0.00 0.00 52 996.6
20260504205439 57 226 0.0 0.0 0.00 0.00 0.00 49 996.5
20260504204939 58 226 0.0 0.9 0.00 0.00 0.00 49 996.5
20260504204438 58 227 0.9 1.7 0.00 0.00 0.00 48 996.5
20260504203938 60 240 1.7 2.6 0.00 0.00 0.00 46 996.3
20260504203437 61 229 3.5 4.3 0.00 0.00 0.00 43 996.4
20260504202937 61 233 3.5 4.3 0.00 0.00 0.00 42 996.2
20260504202436 60 223 1.7 2.6 0.00 0.00 0.00 43 996.4
20260504201935 59 229 1.7 1.7 0.00 0.00 0.00 45 996.3
20260504201434 60 226 1.7 1.7 0.00 0.00 0.00 44 996.3
20260504200934 61 230 0.9 1.7 0.00 0.00 0.00 43 996.5
20260504200434 63 229 3.5 3.5 0.00 0.00 0.00 39 996.3
20260504195932 62 225 1.7 2.6 0.00 0.00 0.00 40 996.3
20260504195432 63 222 2.6 3.5 0.00 0.00 0.00 39 996.2
20260504194931 63 232 1.7 2.6 0.00 0.00 0.00 38 996.1
20260504194430 62 235 1.7 2.6 0.00 0.00 0.00 39 996.5
20260504193930 63 216 3.5 4.3 0.00 0.00 0.00 38 996.2
20260504193428 63 232 2.6 3.5 0.00 0.00 0.00 39 996.1
20260504192928 63 227 2.6 3.5 0.00 0.00 0.00 39 996.0
20260504192427 63 263 2.6 3.5 0.00 0.00 0.00 39 996.1
20260504191926 63 208 2.6 3.5 0.00 0.00 0.00 38 996.0
20260504191426 63 230 1.7 1.7 0.00 0.00 0.00 39 996.1
20260504190925 63 234 3.5 4.3 0.00 0.00 0.00 39 996.0
20260504190425 63 223 1.7 2.6 0.00 0.00 0.00 39 995.8
20260504185924 63 226 2.6 3.5 0.00 0.00 0.00 40 996.2
20260504185424 62 231 2.6 3.5 0.00 0.00 0.00 41 996.0
20260504184923 63 232 3.5 4.3 0.00 0.00 0.00 40 996.0
20260504184422 64 248 2.6 3.5 0.00 0.00 0.00 39 996.0
20260504183921 64 248 2.6 2.6 0.00 0.00 0.00 41 996.0
20260504183421 63 243 1.7 2.6 0.00 0.00 0.00 39 996.0
20260504182920 64 231 1.7 1.7 0.00 0.00 0.00 39 996.0
20260504182420 64 223 1.7 2.6 0.00 0.00 0.00 40 996.0
20260504181919 64 231 1.7 2.6 0.00 0.00 0.00 38 995.9
20260504181419 65 229 1.7 2.6 0.00 0.00 0.00 37 995.8
20260504180918 65 228 0.9 1.7 0.00 0.00 0.00 37 995.7
20260504180418 65 236 1.7 2.6 0.00 0.00 0.00 37 995.6
20260504175917 66 219 1.7 1.7 0.00 0.00 0.00 37 995.9
20260504175416 66 230 2.6 4.3 0.00 0.00 0.00 36 995.7
20260504174916 66 200 0.0 0.9 0.00 0.00 0.00 37 995.6
20260504174415 66 223 3.5 4.3 0.00 0.00 0.00 35 995.6
20260504173915 66 229 3.5 3.5 0.00 0.00 0.00 35 995.9
20260504173414 66 223 0.0 0.9 0.00 0.00 0.00 35 995.8
20260504172914 67 233 2.6 3.5 0.00 0.00 0.00 34 995.6
20260504172413 67 142 0.9 0.9 0.00 0.00 0.00 35 995.6
20260504171913 68 234 3.5 4.3 0.00 0.00 0.00 33 995.5
20260504171412 68 221 1.7 2.6 0.00 0.00 0.00 32 995.4
20260504170911 68 219 0.9 1.7 0.00 0.00 0.00 32 995.2
20260504170411 69 224 0.9 2.6 0.00 0.00 0.00 33 995.5
20260504160405 74 95 0.0 0.9 0.00 0.00 0.00 28 995.4
20260504150858 76 238 0.9 1.7 0.00 0.00 0.00 25 995.6
20260504150358 77 140 3.5 6.1 0.00 0.00 0.00 24 995.8
20260504140850 77 156 1.7 2.6 0.00 0.00 0.00 26 996.0
20260504140349 78 118 1.7 3.5 0.00 0.00 0.00 26 996.1
20260504130338 78 198 1.7 2.6 0.00 0.00 0.00 28 996.7
20260504110324 74 219 3.5 6.1 0.00 0.00 0.00 34 997.7
20260504100316 71 235 4.3 6.1 0.00 0.00 0.00 36 998.5
20260504081804 66 121 2.6 3.5 0.00 0.00 0.00 43 999.6
20260504081303 66 212 0.0 0.9 0.00 0.00 0.00 44 999.6
20260504080803 65 231 1.7 2.6 0.00 0.00 0.00 44 999.5
20260504080302 65 237 3.5 4.3 0.00 0.00 0.00 43 999.6
20260504070255 62 136 0.9 0.9 0.00 0.00 0.00 47 999.4
20260504060247 59 104 0.0 0.9 0.00 0.00 0.00 53 999.3
20260504050736 53 229 0.0 0.0 0.00 0.00 0.00 68 999.3
20260504050236 53 229 0.0 0.9 0.00 0.00 0.00 72 999.2
20260504045735 51 229 0.0 0.0 0.00 0.00 0.00 71 999.5
20260504045235 49 230 0.0 0.0 0.00 0.00 0.00 76 999.4
20260504044734 48 230 0.0 0.0 0.00 0.00 0.00 76 999.4
20260504044234 47 230 0.0 0.0 0.00 0.00 0.00 77 999.6
20260504043733 45 230 0.0 0.0 0.00 0.00 0.00 80 999.5
20260504043233 44 230 0.0 0.0 0.00 0.00 0.00 83 999.2
20260504042732 42 230 0.0 0.0 0.00 0.00 0.00 86 999.4
20260504042231 40 230 0.0 0.0 0.00 0.00 0.00 89 999.4
20260504041731 40 230 0.0 0.0 0.00 0.00 0.00 92 999.4
20260504041231 38 230 0.0 0.0 0.00 0.00 0.00 96 999.5
20260504040730 36 230 0.0 0.0 0.00 0.00 0.00 97 999.3
20260504040229 35 230 0.0 0.0 0.00 0.00 0.00 97 999.5
20260504035729 35 231 0.9 0.9 0.00 0.00 0.00 98 999.3
20260504035228 35 230 0.9 0.9 0.00 0.00 0.00 98 999.3
20260504034728 35 229 0.0 0.0 0.00 0.00 0.00 98 999.3
20260504034227 34 229 0.0 0.0 0.00 0.00 0.00 98 999.3
20260504033727 34 229 0.0 0.9 0.00 0.00 0.00 98 999.5
20260504033226 34 229 0.0 0.9 0.00 0.00 0.00 98 999.4
20260504032726 33 226 0.9 1.7 0.00 0.00 0.00 98 999.4
20260504032225 33 228 0.9 0.9 0.00 0.00 0.00 98 999.5
20260504031724 33 223 0.9 0.9 0.00 0.00 0.00 98 999.3
20260504031224 33 226 0.0 0.0 0.00 0.00 0.00 98 999.5
20260504030723 33 225 0.0 0.0 0.00 0.00 0.00 98 999.4
20260504030223 33 225 0.0 0.0 0.00 0.00 0.00 98 999.5
20260504025722 33 225 0.0 0.0 0.00 0.00 0.00 98 999.4
20260504025222 32 217 0.0 0.0 0.00 0.00 0.00 98 999.5
20260504024721 32 115 0.0 0.0 0.00 0.00 0.00 98 999.2
20260504024221 32 214 0.9 0.9 0.00 0.00 0.00 98 999.4
20260504023720 32 224 0.9 0.9 0.00 0.00 0.00 98 999.5
20260504023220 32 230 0.0 0.0 0.00 0.00 0.00 98 999.3
20260504022719 32 231 0.0 0.0 0.00 0.00 0.00 97 999.4
20260504022219 32 231 0.0 0.0 0.00 0.00 0.00 97 999.4
20260504021718 32 231 0.0 0.0 0.00 0.00 0.00 97 999.3
20260504021218 32 231 0.0 0.0 0.00 0.00 0.00 97 999.3
20260504020717 32 231 0.0 0.0 0.00 0.00 0.00 97 999.2
20260504020216 33 231 0.0 0.0 0.00 0.00 0.00 97 999.3
20260504015716 33 231 0.0 0.0 0.00 0.00 0.00 97 999.3
20260504015216 33 231 0.0 0.0 0.00 0.00 0.00 97 999.3
20260504014715 33 231 0.0 0.0 0.00 0.00 0.00 97 999.1
20260504014214 33 231 0.0 0.9 0.00 0.00 0.00 97 999.4
20260504013714 33 231 0.0 0.0 0.00 0.00 0.00 97 999.3
20260504013213 33 231 0.0 0.0 0.00 0.00 0.00 97 999.3
20260504012713 33 231 0.0 0.0 0.00 0.00 0.00 96 999.4
20260504012212 33 231 0.0 0.9 0.00 0.00 0.00 96 999.4
20260504011712 33 231 0.0 0.0 0.00 0.00 0.00 96 999.5
20260504011212 34 231 0.0 0.0 0.00 0.00 0.00 96 999.4
20260504010711 33 231 0.0 0.0 0.00 0.00 0.00 96 999.4
20260504010210 33 231 0.0 0.0 0.00 0.00 0.00 96 999.4
20260504005710 34 231 0.0 0.0 0.00 0.00 0.00 96 999.4
20260504005209 34 231 0.0 0.0 0.00 0.00 0.00 96 999.4
20260504004709 33 231 0.0 0.0 0.00 0.00 0.00 96 999.5